Zurück zum Katalog

STARLINK-34594

AktivKommunikationVLEO
NORAD 65088·PAYLOAD·🇺🇸 United States

Gestartet Aug 4, 2025 von Cape Canaveral Space Force Station

Loading…

Nächste Überflüge (nächste 24 Stunden)

TLE

AktuellSource: CelesTrak SupGP

Epoche: Sep 14, 2026, 14:58 UTC

1 65088C 25167L   26257.62409722 -.00018929  00000+0 -55931-3 0  2575
2 65088  53.1592 228.8468 0001444  86.3312 136.1152 15.34397381    12

Verfolge STARLINK-34594 in Echtzeit mit AllMySat

Download on the App Store